Flag for Russia Weather past 2 weeks in Yekaterinburg, Russia

Now
66 °F

Sprinkles. Overcast.


Feels Like: 66 °F
Forecast: 62 / 70 °F
Wind: 3 mph from Northeast

Location: Ekaterinburg

Current Time: Jul 1, 2015 at 2:49:14 AM

Latest Report: Jul 1, 2015 at 2:00 AM


Visibility: 6 mi

Pressure: 29.83 "Hg

Humidity: 100%

Dew point: 66 °F

Location of YekaterinburgLocation

Historic Weather in Yekaterinburg — Graph

°F

Yekaterinburg temperature yesterday

Maximum temperature yesterday: 88 °F (at 1:00 PM)
Minimum temperature yesterday: 64 °F (at 5:00 AM)
Average temperature yesterday: 77 °F

Past Weeks' High & Low Weather Summary

 TemperatureHumidityPressure
High93 °F (Jun 23, 3:30 PM)100% (Jun 16, 1:00 AM)30.15 "Hg (Jun 16, 1:00 AM)
Low54 °F (Jun 16, 2:30 AM)20% (Jun 18, 2:00 PM)29.74 "Hg (Jun 16, 1:00 AM)
Average73 °F78%29.93 "Hg
* Reported Jun 16 1:00 AM — Jul 1 1:30 AM, Yekaterinburg, Weather by CustomWeather, © 2015

Note: Actual official high and low records may vary slightly from our data, if they occured in-between our weather recording intervals... More about our weather records

Advertising

Yekaterinburg weather history for previous 24 hours

 ConditionsComfort  
Time TempWeatherWind HumidityBarometerVisibility
1:30 AM
Wed, Jul 1
66 °FMostly cloudy.3 mph100%29.80 "Hg5 mi
1:00 AM66 °FMostly cloudy.8 mph100%29.77 "Hg6 mi
12:30 AM66 °FOvercast.13 mph100%29.77 "HgN/A
12:00 AM68 °FMostly cloudy.10 mph100%29.77 "HgN/A
11:30 PM
Tue, Jun 30
70 °FThunderstorms. Mostly cloudy.8 mph94%29.80 "HgN/A
11:00 PM70 °FThunderstorms. Mostly cloudy.13 mph94%29.77 "HgN/A
10:00 PM73 °FThunderstorms. More clouds than sun.6 mph83%29.80 "HgN/A
9:30 PM75 °FMore clouds than sun.6 mph83%29.80 "HgN/A
9:00 PM75 °FMore clouds than sun.6 mph83%29.80 "HgN/A
8:00 PM77 °FBroken clouds.8 mph74%29.77 "HgN/A
7:30 PM79 °FBroken clouds.10 mph70%29.77 "HgN/A
6:30 PM82 °FBroken clouds.6 mph55%29.74 "HgN/A
6:00 PM82 °FBroken clouds.8 mph51%29.74 "HgN/A
5:30 PM86 °FBroken clouds.8 mph52%29.74 "HgN/A
5:00 PM88 °FBroken clouds.8 mph55%29.74 "HgN/A
4:30 PM88 °FBroken clouds.10 mph52%29.77 "HgN/A
4:00 PM86 °FBroken clouds.10 mph55%29.77 "HgN/A
3:30 PM86 °FBroken clouds.10 mph55%29.77 "HgN/A
3:00 PM86 °FSunny.6 mph59%29.77 "Hg10 mi
2:30 PM88 °FSunny.3 mph49%29.77 "Hg10 mi
2:00 PM88 °FSunny.10 mph52%29.77 "Hg10 mi
1:30 PM88 °FPassing clouds.3 mph52%29.77 "HgN/A
1:00 PM88 °FSunny.3 mph52%29.77 "Hg10 mi
12:30 PM86 °FSunny.3 mph55%29.77 "Hg10 mi
12:00 PM84 °FPassing clouds.3 mph58%29.80 "HgN/A
11:30 AM84 °FPassing clouds.6 mph58%29.77 "HgN/A
11:00 AM82 °FSunny.3 mph62%29.80 "Hg10 mi
10:30 AM82 °FSunny.8 mph58%29.80 "Hg10 mi
10:00 AM82 °FSunny.8 mph62%29.77 "Hg10 mi
9:30 AM81 °FPassing clouds.6 mph70%29.77 "HgN/A
8:30 AM79 °FSunny.6 mph84%29.77 "Hg10 mi
8:00 AM75 °FPartly sunny.1 mph89%29.77 "Hg6 mi
7:30 AM73 °FPartly sunny.3 mph89%29.77 "Hg6 mi
7:00 AM72 °FPartly sunny.No wind94%29.77 "Hg5 mi
6:30 AM70 °FPartly sunny.1 mph94%29.77 "Hg4 mi
6:00 AM70 °FPartly sunny.No wind94%29.77 "Hg4 mi
5:30 AM66 °FPartly sunny.No wind100%29.77 "Hg5 mi
5:00 AM64 °FFog.No wind94%29.80 "Hg4 mi
4:30 AM66 °FFog.1 mph94%29.77 "Hg5 mi
4:00 AM68 °FPassing clouds.1 mph94%29.77 "Hg6 mi
3:30 AM66 °FPassing clouds.1 mph94%29.77 "Hg6 mi
3:00 AM66 °FPartly cloudy.3 mph94%29.77 "Hg6 mi
2:30 AM68 °FPartly cloudy.1 mph94%29.77 "Hg6 mi
2:00 AM68 °FPassing clouds.3 mph88%29.77 "Hg6 mi
Weather by CustomWeather, © 2015

See weather overviewHow to use our weather pages